Weather History for Kaiser, MO

Change the Weather History Date:

Wednesday, April 17, 2013

  Actual Average Record
Temperature  
Mean Temperature 63 °F -  
Max Temperature 82 °F 65 °F 87 °F (2004)
Min Temperature 44 °F 45 °F 26 °F (1997)
Degree Days  
Heating Degree Days 2    
Growing Degree Days 13 (Base 50)    
Moisture  
Dew Point 56 °F    
Average Humidity 75    
Maximum Humidity 100    
Minimum Humidity 51    
Precipitation  
Precipitation 0.00 in - - ()
Sea Level Pressure  
Sea Level Pressure 29.88 in    
Wind  
Wind Speed 9 mph (SSE)    
Max Wind Speed 18 mph    
Max Gust Speed 29 mph    
Visibility 6 miles    
Events      
Averages and records for this station are not official NWS values.
T = Trace of Precipitation, MM = Missing Value Source: NWS Daily Summary

Daily Weather History Graph

Daily Weather History Graph

Search for Another Location

Airport:

Trip Planner

Search our weather history database for the weather conditions in past years. The results will help you decide how hot, cold, wet, or windy it might be!

Date:

Astronomy

Apr. 17, 2013 Rise Set
Actual Time 6:31 AM CDT 7:48 PM CDT
Civil Twilight 6:04 AM CDT 8:15 PM CDT
Nautical Twilight 5:31 AM CDT 8:48 PM CDT
Astronomical Twilight 4:57 AM CDT 9:23 PM CDT
Moon 11:47 AM CDT (4/17) 1:24 AM CDT (4/17)
Length of Visible Light 14h 11m
Length of Day
13h 16m
Waxing Crescent, 42% of the Moon is Illuminated
Apr 17
Waxing Crescent
Apr 18
First Quarter
Apr 25
Full
May 2
Last Quarter
May 9
New

Hourly Weather History & Observations

Time (CDT) Temp. Windchill Dew Point Humidity Pressure Visibility Wind Dir Wind Speed Gust Speed Precip Events Conditions
12:15 AM 44.6 °F 39.7 °F 42.8 °F 93% 30.09 in 1.8 mi ENE 9.2 mph - N/A   Overcast
12:35 AM 44.6 °F 40.2 °F 42.8 °F 93% 30.08 in 1.0 mi East 8.1 mph - N/A   Overcast
12:55 AM 44.6 °F 40.2 °F 42.8 °F 93% 30.08 in 0.8 mi East 8.1 mph - N/A   Overcast
1:15 AM 46.4 °F 42.4 °F 42.8 °F 87% 30.09 in 0.5 mi East 8.1 mph - N/A   Overcast
1:35 AM 46.4 °F 43.5 °F 44.6 °F 93% 30.08 in 0.5 mi East 5.8 mph - N/A   Overcast
1:55 AM 46.4 °F 42.9 °F 44.6 °F 93% 30.08 in 0.5 mi East 6.9 mph - N/A   Overcast
2:15 AM 46.4 °F 42.9 °F 44.6 °F 93% 30.07 in 0.5 mi East 6.9 mph - N/A   Overcast
2:35 AM 46.4 °F 42.9 °F 44.6 °F 93% 30.07 in 0.5 mi East 6.9 mph - N/A   Overcast
2:55 AM 46.4 °F 42.4 °F 44.6 °F 93% 30.07 in 0.5 mi East 8.1 mph - N/A   Overcast
3:15 AM 46.4 °F 42.9 °F 44.6 °F 93% 30.07 in 0.5 mi East 6.9 mph - N/A   Overcast
3:35 AM 46.4 °F 42.9 °F 44.6 °F 93% 30.06 in 0.5 mi East 6.9 mph - N/A   Overcast
3:55 AM 46.4 °F 42.4 °F 44.6 °F 93% 30.05 in 0.8 mi East 8.1 mph - N/A   Overcast
4:15 AM 46.4 °F 42.4 °F 44.6 °F 93% 30.04 in 0.8 mi ESE 8.1 mph - N/A   Overcast
4:35 AM 46.4 °F 42.9 °F 44.6 °F 93% 30.03 in 1.0 mi ESE 6.9 mph - N/A   Overcast
4:55 AM 46.4 °F 43.5 °F 44.6 °F 93% 30.03 in 1.2 mi East 5.8 mph - N/A   Overcast
5:15 AM 46.4 °F 43.5 °F 44.6 °F 93% 30.02 in 1.2 mi ESE 5.8 mph - N/A   Overcast
5:35 AM 46.4 °F 43.5 °F 44.6 °F 93% 30.01 in 1.5 mi ESE 5.8 mph - N/A   Overcast
5:55 AM 46.4 °F 44.3 °F 46.4 °F 100% 30.00 in 1.2 mi ESE 4.6 mph - N/A   Overcast
6:15 AM 48.2 °F - 46.4 °F 93% 30.00 in 1.0 mi SE 5.8 mph - N/A   Overcast
6:35 AM 48.2 °F - 46.4 °F 93% 29.99 in 0.5 mi ESE 4.6 mph - N/A   Overcast
6:55 AM 48.2 °F - 46.4 °F 93% 30.00 in 0.2 mi East 4.6 mph - N/A   Overcast
7:15 AM 48.2 °F - 46.4 °F 93% 30.00 in 0.2 mi Calm Calm - N/A   Overcast
7:35 AM 50.0 °F - 48.2 °F 94% 30.01 in 0.2 mi ENE 3.5 mph - N/A   Overcast
7:55 AM 51.8 °F - 48.2 °F 88% 30.00 in 0.2 mi East 4.6 mph - N/A   Overcast
8:15 AM 51.8 °F - 50.0 °F 94% 30.00 in 0.2 mi ESE 5.8 mph - N/A   Overcast
8:35 AM 53.6 °F - 51.8 °F 94% 29.99 in 0.2 mi ESE 5.8 mph - N/A   Overcast
9:15 AM 55.4 °F - 53.6 °F 94% 29.98 in 0.2 mi SSE 5.8 mph - N/A   Overcast
9:35 AM 55.4 °F - 55.4 °F 100% 29.98 in 0.5 mi SE 5.8 mph - N/A   Overcast
9:55 AM 57.2 °F - 55.4 °F 94% 29.96 in 1.2 mi SSE 6.9 mph - N/A   Overcast
10:15 AM 60.8 °F - 57.2 °F 88% 29.95 in 2.5 mi SSE 5.8 mph - N/A   Overcast
10:35 AM 62.6 °F - 60.8 °F 94% 29.94 in 4.0 mi SSE 8.1 mph - N/A   Overcast
10:55 AM 66.2 °F - 62.6 °F 88% 29.93 in 5.0 mi South 8.1 mph - N/A   Mostly Cloudy
11:15 AM 69.8 °F - 64.4 °F 83% 29.93 in 7.0 mi South 13.8 mph 18.4 mph N/A   Mostly Cloudy
11:35 AM 71.6 °F - 64.4 °F 78% 29.92 in 8.0 mi South 9.2 mph - N/A   Partly Cloudy
11:55 AM 75.2 °F - 66.2 °F 73% 29.90 in 10.0 mi South 11.5 mph 21.9 mph N/A   Clear
12:15 PM 78.8 °F - 66.2 °F 65% 29.90 in 10.0 mi SSW 13.8 mph 19.6 mph N/A   Mostly Cloudy
12:35 PM 78.8 °F - 66.2 °F 65% 29.89 in 10.0 mi South 16.1 mph 25.3 mph N/A   Overcast
12:55 PM 78.8 °F - 66.2 °F 65% 29.87 in 10.0 mi South 16.1 mph 20.7 mph N/A   Overcast
1:15 PM 80.6 °F - 66.2 °F 61% 29.85 in 10.0 mi SSW 18.4 mph 25.3 mph N/A   Scattered Clouds
1:35 PM 82.4 °F - 66.2 °F 58% 29.84 in 10.0 mi SSW 18.4 mph 28.8 mph N/A   Mostly Cloudy
1:55 PM 82.4 °F - 64.4 °F 54% 29.84 in 10.0 mi SSW 13.8 mph 21.9 mph N/A   Overcast
2:15 PM 80.6 °F - 64.4 °F 58% 29.83 in 10.0 mi South 11.5 mph 23.0 mph N/A   Overcast
2:35 PM 80.6 °F - 64.4 °F 58% 29.82 in 10.0 mi South 12.7 mph 17.3 mph N/A   Overcast
2:55 PM 82.4 °F - 62.6 °F 51% 29.80 in 10.0 mi South 16.1 mph 21.9 mph N/A   Overcast
3:35 PM 82.4 °F - 62.6 °F 51% 29.77 in 10.0 mi South 16.1 mph 23.0 mph N/A   Mostly Cloudy
3:55 PM 80.6 °F - 62.6 °F 54% 29.77 in 10.0 mi South 13.8 mph 20.7 mph N/A   Mostly Cloudy
4:15 PM 80.6 °F - 62.6 °F 54% 29.75 in 10.0 mi South 9.2 mph 21.9 mph N/A   Overcast
4:35 PM 80.6 °F - 62.6 °F 54% 29.73 in 10.0 mi South 16.1 mph 25.3 mph N/A   Mostly Cloudy
4:55 PM 80.6 °F - 62.6 °F 54% 29.74 in 10.0 mi South 11.5 mph 24.2 mph N/A   Mostly Cloudy
5:15 PM 80.6 °F - 62.6 °F 54% 29.74 in 10.0 mi South 13.8 mph 20.7 mph N/A   Overcast
5:35 PM 80.6 °F - 62.6 °F 54% 29.72 in 10.0 mi South 13.8 mph 21.9 mph N/A   Overcast
5:55 PM 80.6 °F - 62.6 °F 54% 29.71 in 10.0 mi South 16.1 mph 26.5 mph N/A   Mostly Cloudy
6:15 PM 80.6 °F - 62.6 °F 54% 29.71 in 10.0 mi South 11.5 mph 19.6 mph N/A   Mostly Cloudy
6:35 PM 80.6 °F - 60.8 °F 51% 29.71 in 10.0 mi South 11.5 mph 23.0 mph N/A   Mostly Cloudy
6:55 PM 80.6 °F - 60.8 °F 51% 29.71 in 10.0 mi South 12.7 mph 23.0 mph N/A   Overcast
7:15 PM 80.6 °F - 60.8 °F 51% 29.70 in 10.0 mi South 12.7 mph 21.9 mph N/A   Mostly Cloudy
7:35 PM 78.8 °F - 60.8 °F 54% 29.68 in 10.0 mi South 10.4 mph 20.7 mph N/A   Partly Cloudy
7:55 PM 78.8 °F - 60.8 °F 54% 29.68 in 10.0 mi South 12.7 mph 19.6 mph N/A   Clear
8:15 PM 78.8 °F - 60.8 °F 54% 29.68 in 10.0 mi South 12.7 mph 18.4 mph N/A   Clear
8:35 PM 77.0 °F - 60.8 °F 57% 29.67 in 10.0 mi South 11.5 mph 20.7 mph N/A   Clear
8:55 PM 77.0 °F - 60.8 °F 57% 29.68 in 5.0 mi South 10.4 mph 18.4 mph N/A   Clear
9:15 PM 77.0 °F - 60.8 °F 57% 29.68 in 10.0 mi South 11.5 mph 21.9 mph N/A   Partly Cloudy
9:35 PM 77.0 °F - 60.8 °F 57% 29.68 in 10.0 mi South 11.5 mph 18.4 mph N/A   Mostly Cloudy
9:55 PM 77.0 °F - 60.8 °F 57% 29.68 in 10.0 mi South 13.8 mph 23.0 mph N/A   Overcast
10:15 PM 75.2 °F - 62.6 °F 65% 29.69 in 10.0 mi South 15.0 mph 24.2 mph N/A   Mostly Cloudy
10:35 PM 75.2 °F - 62.6 °F 65% 29.68 in 10.0 mi South 15.0 mph 21.9 mph N/A   Mostly Cloudy
10:55 PM 75.2 °F - 62.6 °F 65% 29.68 in 10.0 mi South 11.5 mph 16.1 mph N/A   Overcast
11:15 PM 75.2 °F - 62.6 °F 65% 29.66 in 10.0 mi South 13.8 mph 23.0 mph N/A   Mostly Cloudy
11:35 PM 75.2 °F - 62.6 °F 65% 29.66 in 10.0 mi South 15.0 mph 24.2 mph N/A   Mostly Cloudy
11:55 PM 75.2 °F - 62.6 °F 65% 29.66 in 10.0 mi South 15.0 mph 20.7 mph N/A   Mostly Cloudy